Wind_Speed
28 27 26 26 25 26 26 27 27 28 28 28 29 30 31 33 34 35 34 34 34 33 33 33 33 33 33 33 33 32 31 30 29 29 29 29 30 31 31 32 32 32 33
28 28 28 27 27 27 28 28 28 29 29 29 30 30 31 32 33 33 34 34 34 34 34 33 34 34 34 34 34 34 33 32 32 32 33 33 33 33 34 35 35 36 36
29 29 29 28 28 29 29 28 29 29 30 30 31 32 32 33 33 34 34 35 35 35 35 34 34 34 35 35 35 35 35 35 36 36 37 37 37 37 38 38 39 40 40
30 30 29 28 28 29 29 29 29 29 30 31 32 33 34 34 34 34 35 36 36 36 37 37 37 37 38 38 38 39 39 39 40 40 41 42 42 42 42 42 42 43 44
30 30 30 29 29 29 29 29 29 30 31 32 33 34 35 36 36 36 36 37 38 38 39 40 40 41 41 42 42 43 44 44 44 45 45 45 45 45 45 46 46 47 47
31 31 31 30 30 30 30 30 30 30 31 32 33 34 35 36 37 37 37 38 39 40 41 42 43 44 45 45 45 46 47 47 47 47 48 48 48 48 48 49 50 50 51
32 32 32 32 32 32 31 32 32 32 32 33 34 34 35 35 36 38 39 39 40 41 42 44 45 46 47 47 48 48 48 49 49 50 50 50 50 51 51 52 53 54 55
34 35 35 34 34 34 34 34 34 34 34 34 35 35 36 37 37 38 40 41 42 42 44 45 46 47 47 48 49 49 50 50 51 51 51 52 52 53 54 55 56 58 59
37 37 37 36 35 35 35 35 36 35 35 35 36 36 37 38 39 39 41 42 43 44 45 46 46 47 48 49 50 51 52 52 53 53 53 54 55 56 58 59 60 60 61
41 41 40 39 38 37 37 37 37 37 37 37 37 38 39 39 40 41 41 43 44 45 46 47 48 49 50 51 52 52 53 54 54 55 56 57 59 60 61 62 62 63 63
45 44 44 42 41 40 39 39 39 38 38 38 39 39 40 41 41 42 43 44 45 47 48 49 50 51 52 52 53 53 54 55 57 58 60 61 62 63 64 64 65 65 66
48 48 47 45 44 43 42 41 40 40 40 40 40 41 42 42 43 43 44 45 46 48 50 52 53 54 54 54 55 55 56 58 59 61 62 64 65 65 66 67 67 69 70
50 49 49 48 46 46 45 43 42 42 41 41 42 43 43 44 44 45 46 47 48 49 50 53 55 56 56 57 58 59 60 61 63 63 64 65 66 67 68 69 70 72 73
52 51 50 49 48 47 46 44 44 43 43 43 43 44 45 45 46 47 48 50 51 52 53 54 56 58 59 60 62 63 64 65 65 66 66 67 68 69 71 72 74 76 78
53 52 50 49 48 47 47 45 45 45 44 45 45 45 46 46 48 49 51 54 55 56 56 57 59 60 62 63 65 66 66 67 67 68 69 70 72 73 75 78 80 83 85
53 52 50 49 47 47 46 45 45 45 45 45 46 46 48 49 50 52 55 57 59 60 61 61 63 64 65 66 67 67 67 68 68 70 72 74 76 79 82 84 87 90 92
51 50 49 48 47 46 45 45 45 46 46 46 47 47 49 51 53 56 58 60 62 64 65 65 67 68 68 69 68 69 69 70 72 74 77 80 83 86 89 92 94 95 96
49 48 47 46 45 45 45 45 45 46 46 47 48 50 52 54 57 59 61 63 65 66 67 68 68 69 70 70 70 71 72 74 77 80 84 88 91 94 96 96 95 92 89
46 44 44 43 43 44 43 43 44 46 47 48 51 54 56 58 60 61 63 65 66 68 69 70 70 70 70 72 73 75 77 80 84 88 92 95 96 96 94 90 85 79 74
41 41 41 41 41 41 41 42 44 45 48 52 56 57 58 60 62 64 65 66 68 69 70 71 71 71 72 75 77 79 81 85 90 94 96 95 92 87 82 76 71 65 61
37 37 38 38 38 38 39 41 44 47 52 56 57 58 60 62 63 64 66 67 68 69 70 71 72 74 76 79 82 85 87 89 91 91 88 83 78 73 68 65 61 58 57
33 34 34 34 34 36 38 42 47 50 54 57 58 60 61 63 64 66 67 68 69 71 72 74 75 78 81 84 87 89 91 89 84 78 75 68 66 62 60 58 57 57 56
29 30 31 32 34 37 40 44 49 54 56 57 58 60 62 64 65 66 67 68 70 73 76 78 80 83 86 88 90 89 86 80 72 67 64 58 57 55 55 55 56 57 57
26 29 31 35 38 40 44 48 51 54 56 58 60 61 63 64 65 67 68 70 73 76 80 83 85 88 90 90 87 82 75 67 60 57 57 53 51 52 52 53 55 56 55
26 30 33 36 38 42 45 47 50 54 56 58 60 62 63 64 66 69 71 74 77 80 83 87 89 90 87 82 76 69 62 56 51 49 53 52 51 51 49 49 51 53 52
28 31 33 35 38 41 44 48 51 54 55 57 60 62 64 67 70 74 76 78 81 84 86 87 85 81 74 68 63 58 54 51 49 48 51 52 50 50 45 41 44 47 47
Wind_Direction
276 277 277 277 278 279 280 281 282 282 282 281 279 278 276 276 277 277 278 280 281 282 283 282 280 277 276 275 275 276 277 279 281 284 286 287 287 285 284 282 279 276 274
275 277 278 278 279 279 280 281 283 284 284 283 282 281 280 279 279 279 279 280 281 282 282 282 280 277 276 275 275 275 276 277 278 281 283 283 284 283 282 280 278 276 275
273 275 276 277 278 280 281 283 284 285 285 284 284 283 282 281 281 280 280 280 280 281 281 281 281 279 278 277 276 275 275 276 277 279 281 281 281 281 280 279 277 275 274
270 271 274 276 278 279 281 282 284 285 286 286 286 285 284 283 282 282 281 280 281 281 281 281 280 280 279 278 278 277 277 277 278 279 280 280 280 279 279 277 275 274 273
269 270 271 274 275 277 278 281 283 286 288 288 288 287 286 284 284 284 283 283 282 282 283 283 282 281 281 280 280 279 279 279 279 279 280 280 279 278 278 277 275 274 273
267 268 270 272 273 275 277 279 282 286 288 290 290 291 289 287 286 285 286 285 284 284 284 284 284 283 282 282 281 281 280 280 280 280 279 279 278 278 277 276 275 275 274
267 268 269 270 271 274 276 279 282 285 288 290 291 291 291 290 288 287 287 287 287 286 286 286 285 285 284 283 283 282 282 281 281 281 280 279 278 277 277 276 276 275 275
267 267 268 269 270 273 276 278 280 283 286 288 290 291 291 291 290 290 290 290 290 289 289 288 288 287 286 285 284 283 282 282 281 280 280 279 278 278 277 277 277 276 276
263 265 268 270 271 273 275 277 279 282 284 287 289 290 290 290 291 292 292 291 291 291 291 290 290 289 288 287 286 285 284 283 282 281 280 279 279 279 278 278 278 277 277
262 264 267 270 271 272 274 276 278 281 284 286 288 289 290 290 290 291 292 292 292 293 293 293 292 291 290 289 288 287 286 285 284 284 283 283 282 281 281 280 280 279 278
261 263 266 268 270 271 273 275 277 280 283 285 286 288 289 289 291 292 293 294 295 296 296 295 294 293 292 291 289 287 286 286 286 285 285 285 284 284 283 283 282 281 280
260 262 264 266 268 270 272 275 277 279 281 283 285 287 287 289 291 292 293 295 296 297 297 296 295 294 293 292 290 289 288 288 287 287 287 287 286 285 285 284 283 283 282
259 260 262 264 266 269 272 274 277 278 280 282 284 285 286 288 290 292 293 294 294 295 295 295 294 294 293 292 291 290 290 290 289 288 288 287 286 285 284 283 282 281 281
257 258 260 262 264 267 271 273 275 277 279 281 283 285 287 288 290 292 293 294 294 295 294 294 294 294 293 293 293 292 292 291 291 290 288 287 286 285 284 283 283 282 281
254 256 258 260 263 266 269 272 274 276 278 281 283 285 286 288 290 292 293 294 294 295 294 294 294 294 294 294 294 294 293 292 291 290 289 288 287 286 285 285 284 284 284
252 254 256 259 261 265 268 270 272 275 279 281 284 285 288 289 290 292 293 294 294 294 294 295 295 295 295 295 294 293 292 292 291 290 289 288 288 288 287 287 287 287 286
250 252 255 257 260 264 267 269 272 274 278 282 284 286 288 290 291 292 292 293 294 294 295 296 296 296 296 296 295 294 293 293 293 292 292 291 291 291 291 291 290 289 288
247 250 253 256 260 263 266 269 271 275 279 283 285 286 288 289 289 290 291 292 293 294 295 296 296 296 296 296 295 294 294 294 294 294 294 295 295 295 294 293 292 291 289
245 249 252 256 259 263 266 270 272 276 282 284 285 286 287 288 289 289 291 292 294 295 296 296 296 296 296 296 296 296 297 297 297 297 297 297 297 296 295 293 292 290 288
244 248 252 256 260 264 267 270 275 280 283 284 284 285 286 287 289 290 292 294 295 296 296 297 297 297 297 297 297 297 298 299 299 299 298 298 297 296 294 292 291 289 286
243 248 253 257 262 266 271 274 278 280 281 282 283 285 287 289 291 292 293 295 296 296 296 296 297 297 297 298 298 299 300 300 300 299 298 297 296 294 293 292 290 288 286
243 249 254 259 263 269 272 275 277 278 279 281 284 287 289 291 293 294 295 297 297 297 297 297 298 298 299 299 300 301 301 301 300 297 296 295 294 293 292 291 290 288 287
243 249 255 261 265 268 271 276 277 278 281 284 287 290 292 294 295 296 297 298 298 298 299 299 300 300 300 300 301 302 302 301 300 296 294 293 291 291 291 291 289 288 287
245 251 257 262 265 267 270 274 279 282 286 289 292 294 295 296 297 297 298 298 299 299 300 301 301 302 302 303 303 302 301 300 299 295 293 293 292 292 292 291 289 287 286
249 256 260 264 269 273 277 281 285 288 291 293 295 296 297 297 298 298 299 299 300 300 301 301 302 303 303 303 302 301 300 299 297 295 295 296 296 295 294 292 289 287 286
257 263 267 271 277 282 286 288 291 293 294 296 297 298 299 299 299 300 300 300 300 301 301 302 303 303 303 302 302 301 301 300 299 297 297 299 299 297 295 290 286 286 286
Height
5819 5819 5819 5819 5818 5818 5817 5816 5815 5815 5814 5813 5812 5811 5809 5807 5806 5805 5804 5803 5802 5801 5799 5798 5796 5795 5794 5793 5792 5791 5791 5790 5789 5788 5787 5786 5785 5784 5783 5783 5783 5782 5782
5814 5814 5813 5813 5813 5812 5811 5810 5809 5808 5807 5806 5805 5804 5802 5801 5799 5798 5797 5796 5795 5794 5792 5790 5789 5788 5787 5786 5785 5784 5783 5782 5781 5780 5779 5778 5777 5776 5775 5775 5774 5774 5773
5808 5808 5808 5807 5807 5806 5805 5804 5803 5802 5801 5799 5798 5797 5796 5794 5792 5791 5789 5788 5787 5786 5784 5783 5782 5781 5779 5778 5777 5776 5775 5774 5773 5772 5771 5770 5768 5767 5766 5765 5765 5764 5764
5801 5801 5801 5801 5800 5800 5799 5798 5796 5795 5794 5792 5791 5790 5788 5786 5785 5783 5782 5780 5779 5777 5776 5775 5774 5773 5771 5770 5769 5768 5766 5765 5764 5762 5761 5759 5758 5757 5756 5755 5754 5753 5753
5794 5794 5794 5794 5794 5793 5792 5791 5790 5789 5787 5786 5784 5782 5780 5778 5777 5775 5774 5772 5770 5769 5767 5766 5765 5763 5762 5761 5759 5758 5756 5755 5753 5752 5750 5748 5747 5745 5744 5743 5742 5741 5741
5787 5787 5787 5787 5787 5786 5785 5784 5783 5782 5780 5778 5776 5774 5772 5770 5769 5767 5765 5764 5762 5760 5758 5756 5755 5753 5752 5750 5749 5747 5745 5743 5742 5740 5738 5736 5735 5733 5732 5730 5729 5728 5727
5780 5779 5779 5779 5779 5779 5778 5777 5776 5774 5773 5771 5769 5767 5765 5763 5761 5759 5757 5755 5753 5751 5749 5747 5745 5743 5741 5739 5737 5735 5733 5731 5729 5727 5725 5723 5722 5720 5718 5717 5715 5714 5713
5772 5771 5771 5771 5771 5771 5770 5769 5768 5767 5765 5763 5762 5759 5757 5756 5753 5750 5748 5745 5743 5741 5738 5736 5734 5732 5730 5727 5725 5723 5720 5718 5716 5714 5712 5710 5708 5706 5704 5702 5700 5698 5697
5763 5763 5763 5763 5763 5763 5762 5761 5760 5759 5757 5756 5754 5752 5749 5747 5745 5742 5739 5736 5733 5730 5728 5725 5722 5720 5718 5715 5712 5709 5707 5704 5702 5699 5697 5695 5693 5691 5688 5686 5684 5682 5680
5754 5754 5754 5754 5754 5754 5753 5752 5751 5750 5749 5747 5745 5743 5741 5738 5736 5733 5730 5727 5723 5720 5717 5713 5710 5708 5705 5702 5699 5695 5693 5690 5687 5684 5681 5679 5676 5674 5671 5668 5666 5664 5662
5745 5745 5745 5745 5745 5745 5745 5744 5743 5741 5740 5738 5736 5734 5732 5729 5726 5723 5720 5717 5713 5709 5705 5701 5698 5695 5692 5688 5685 5681 5678 5675 5672 5668 5665 5662 5658 5655 5652 5649 5646 5644 5642
5734 5735 5736 5736 5736 5736 5735 5735 5734 5732 5731 5729 5727 5725 5722 5720 5717 5714 5710 5707 5703 5698 5693 5688 5684 5680 5677 5674 5670 5667 5663 5660 5656 5652 5648 5644 5640 5636 5632 5629 5626 5622 5620
5723 5724 5725 5726 5726 5726 5725 5725 5724 5723 5722 5720 5718 5715 5713 5710 5707 5703 5700 5696 5693 5689 5683 5677 5671 5667 5663 5659 5655 5651 5648 5643 5639 5635 5630 5626 5621 5617 5613 5610 5606 5602 5599
5712 5713 5714 5715 5716 5716 5715 5715 5714 5713 5711 5710 5707 5705 5702 5699 5695 5692 5688 5684 5681 5677 5672 5666 5659 5653 5649 5644 5639 5635 5630 5625 5620 5616 5611 5606 5601 5597 5593 5588 5584 5580 5575
5700 5702 5704 5705 5705 5706 5705 5705 5704 5702 5701 5699 5696 5694 5691 5687 5683 5679 5675 5671 5667 5663 5660 5654 5646 5640 5634 5629 5623 5618 5612 5607 5601 5595 5590 5585 5580 5575 5570 5565 5560 5554 5549
5688 5691 5693 5694 5695 5695 5695 5695 5693 5692 5690 5688 5685 5682 5679 5675 5671 5666 5661 5656 5651 5647 5643 5639 5632 5625 5619 5612 5606 5600 5594 5588 5582 5575 5569 5563 5557 5551 5545 5539 5533 5526 5519
5677 5680 5682 5684 5685 5685 5685 5684 5683 5682 5679 5677 5674 5671 5667 5662 5658 5652 5647 5642 5636 5631 5627 5622 5615 5607 5600 5594 5587 5581 5574 5568 5561 5553 5545 5538 5532 5524 5517 5509 5502 5494 5487
5666 5670 5672 5674 5675 5675 5675 5674 5673 5671 5669 5666 5662 5658 5654 5649 5644 5639 5633 5627 5621 5615 5610 5605 5598 5590 5582 5574 5568 5562 5555 5547 5539 5530 5521 5512 5504 5495 5486 5477 5468 5461 5454
5656 5660 5663 5664 5665 5665 5665 5664 5663 5661 5658 5654 5650 5646 5641 5636 5630 5624 5618 5612 5605 5599 5592 5586 5580 5572 5564 5555 5548 5541 5533 5524 5514 5503 5493 5484 5474 5463 5453 5444 5437 5431 5426
5647 5651 5654 5655 5656 5656 5655 5654 5653 5650 5646 5642 5637 5632 5627 5622 5615 5609 5603 5596 5589 5582 5574 5566 5560 5553 5545 5535 5527 5520 5513 5501 5489 5474 5463 5454 5444 5434 5425 5417 5412 5407 5403
5640 5643 5645 5647 5647 5647 5646 5644 5642 5638 5634 5630 5624 5619 5613 5607 5600 5594 5587 5579 5572 5564 5556 5548 5541 5533 5524 5514 5505 5496 5488 5479 5466 5447 5438 5429 5418 5411 5402 5396 5390 5386 5383
5633 5636 5637 5638 5638 5637 5636 5634 5631 5627 5622 5617 5611 5605 5599 5592 5585 5577 5570 5562 5553 5545 5536 5529 5521 5512 5502 5492 5482 5472 5462 5453 5444 5427 5415 5409 5397 5392 5384 5378 5371 5367 5363
5626 5628 5629 5629 5628 5628 5626 5623 5620 5616 5610 5604 5598 5591 5584 5576 5568 5560 5553 5545 5535 5524 5515 5507 5499 5488 5479 5469 5459 5449 5437 5426 5418 5404 5395 5394 5383 5377 5370 5362 5354 5348 5345
5620 5620 5621 5621 5620 5618 5616 5613 5608 5603 5597 5590 5583 5576 5568 5560 5551 5543 5536 5527 5517 5506 5495 5485 5475 5465 5453 5442 5432 5423 5414 5407 5399 5386 5375 5376 5370 5363 5356 5346 5336 5330 5327
5613 5613 5613 5612 5610 5608 5605 5601 5596 5590 5583 5576 5568 5560 5552 5544 5535 5526 5518 5509 5499 5487 5474 5462 5451 5440 5429 5418 5409 5402 5395 5388 5383 5374 5360 5357 5353 5347 5342 5332 5320 5313 5309
5607 5606 5605 5604 5601 5598 5594 5589 5583 5577 5570 5562 5553 5544 5535 5526 5517 5507 5497 5488 5479 5468 5455 5442 5429 5416 5407 5398 5389 5383 5377 5371 5365 5360 5349 5342 5336 5327 5327 5321 5309 5299 5295